Вернуться в каталог

ATLAS 5 CENTAUR DEB

LostHEO
NORAD 49360·DEBRIS·🇺🇸 United States

Запущен Oct 17, 2018 с Cape Canaveral Space Force Station

Loading…

Ближайшие Пролёты (ближайшие 24 часа)

TLE

УстаревшееSource: Space-Track

Эпоха: Jul 31, 2026, 21:28 UTC

1 49360U 18079FM  26212.89459717 -.00000112  00000-0  00000-0 0  9995
2 49360  12.9948  38.9651 4365978 318.6246  15.3041  1.88107903 33817

Отслеживайте ATLAS 5 CENTAUR DEB в реальном времени с AllMySat

Download on the App Store